334  
ASUS42 KRAH 241010  
RWRRAH  
NORTH CAROLINA WEATHER ROUNDUP  
NATIONAL WEATHER SERVICE RALEIGH NC  
600 AM EDT TUE APR 24 2018  
 
NOTE: "FAIR" INDICATES FEW OR NO CLOUDS BELOW 12,000 FEET WITH NO  
SIGNIFICANT WEATHER AND/OR S TO VISIBILITY
.  
 
NCZ001-053-055-056-065-067-241100-  
WESTERN NORTH CAROLINA  
 
CITY SKY/WX TMP DP RH WIND PRES REMARKS
 
ASHEVILLE LGT RAIN 52 51 97 NW5 29.91F  
JEFFERSON HVY RAIN 46 45 97 SE3 30.00F  
MORGANTON RAIN 53 53 100 NE5 30.00S  
HICKORY LGT RAIN 52 52 100 NE10 29.95F FOG  
RUTHERFORDTON RAIN 55 55 100 CALM 29.94S  
MOUNT AIRY LGT RAIN 52 48 87 NE22G33 30.03F  
BOONE RAIN 45 45 100 E7G18 29.99F  

 
 
NCZ021-022-025-041-071-084-088-241100-  
CENTRAL NORTH CAROLINA  
 
CITY SKY/WX TMP DP RH WIND PRES REMARKS
 
CHARLOTTE LGT RAIN 59 58 96 NE8G21 29.91F  
GREENSBORO LGT RAIN 53 52 96 E12 30.03F  
WINSTON-SALEM CLOUDY 52 51 97 E13 30.03F  
RALEIGH-DURHAM LGT RAIN 56 55 97 E9 30.06F FOG  
FORT BRAGG LGT RAIN 60 60 100 E13G22 29.98F  
FAYETTEVILLE LGT RAIN 61 58 90 E13G24 29.96F  
BURLINGTON RAIN 55 53 93 NE9 30.04F  
LAURINBURG LGT RAIN 61 59 93 E10 29.96F FOG  

 
 
NCZ011-015-027-028-043-044-047-080-103-241100-  
NORTHEASTERN NORTH CAROLINA  
 
CITY SKY/WX TMP DP RH WIND PRES REMARKS
 
ROCKY MT-WILSO LGT RAIN 57 56 96 E6 30.10S FOG  
GREENVILLE LGT RAIN 59 59 100 E5 30.11F  
WASHINGTON LGT RAIN 61 60 95 E12 30.11F  
ELIZABETH CITY LGT RAIN 60 55 83 E15 30.18F  
MANTEO CLOUDY 58 54 85 SE14 30.18F  
CAPE HATTERAS LGT RAIN 64 61 90 SE21G28 30.15F  

 
 
NCZ078-087-090-091-093-098-101-241100-  
SOUTHEASTERN NORTH CAROLINA  
 
CITY SKY/WX TMP DP RH WIND PRES REMARKS
 
LUMBERTON CLOUDY 63 61 93 SE14 29.94F  
GOLDSBORO LGT RAIN 61 59 94 E15 30.05S FOG  
KINSTON LGT RAIN 61 60 96 E9 30.08F  
KENANSVILLE RAIN 61 59 94 E9 30.04F FOG  
NEW BERN RAIN 61 60 97 SE8 30.10F FOG  
CHERRY POINT RAIN 64 63 96 SE17G26 30.09F FOG  
BEAUFORT RAIN 63 61 93 SE15G23 30.09F  
JACKSONVILLE RAIN 63 62 97 E20G28 30.04F FOG  
WILMINGTON HVY RAIN 63 61 93 E10G21 30.00F FOG  

 
 
 
 
CLICK HERE TO GO TO PREVIOUS BULLETINS.

The Nexlab NC Page Main Text Page